FW7644 Weather Reports


time (UTC)temp
C
wind
direction
speed
KPH
gust
KPH
rain 1hr
cm
rain 24hr
cm
rain mn
cm
humidity
%
barometer
mb
20260503221001 11 0.0 0.0 0.00 0.08 0.08 95 1023.3
20260503220500 11 0.0 0.0 0.00 0.08 0.08 95 1023.2
20260503215958 11 0.0 0.0 0.00 0.15 0.08 95 1023.2
20260503215456 11 0.0 0.0 0.00 0.15 0.08 95 1023.2
20260503214955 11 0.0 0.0 0.00 0.15 0.08 95 1023.2
20260503214453 11 0.0 0.0 0.00 0.15 0.08 95 1023.2
20260503213952 11 0.0 0.0 0.00 0.15 0.08 95 1023.2
20260503213450 11 0.0 0.0 0.00 0.15 0.08 95 1023.2
20260503212948 11 0.0 0.0 0.00 0.15 0.08 94 1023.3
20260503212446 11 0.0 0.0 0.00 0.15 0.08 95 1023.2
20260503211945 11 0.0 0.0 0.00 0.15 0.08 95 1023.1
20260503211443 11 0.0 0.0 0.00 0.15 0.08 95 1023.1
20260503210941 11 0.0 0.0 0.00 0.15 0.08 94 1023.0
20260503210440 11 0.0 0.0 0.00 0.15 0.08 95 1022.9
20260503205938 11 0.0 0.0 0.00 0.20 0.08 94 1022.9
20260503205435 11 0.0 0.0 0.00 0.20 0.08 94 1022.9
20260503204933 11 0.0 0.0 0.00 0.20 0.08 94 1022.9
20260503204432 11 0.0 0.0 0.00 0.20 0.08 93 1023.0
20260503203930 11 0.0 0.0 0.00 0.20 0.08 92 1023.0
20260503203428 12 0.0 0.0 0.00 0.20 0.08 91 1022.9
20260503202926 12 0.0 0.0 0.00 0.20 0.08 90 1022.8
20260503202424 12 0.0 0.0 0.00 0.20 0.08 90 1022.9
20260503201923 12 0.0 0.0 0.00 0.20 0.08 91 1022.9
20260503201420 12 0.0 0.0 0.00 0.20 0.08 92 1022.9
20260503200919 12 0.0 0.0 0.00 0.20 0.08 92 1022.9
20260503200417 12 0.0 0.0 0.00 0.20 0.08 94 1022.9
20260503195916 12 0.0 0.0 0.00 0.20 0.08 95 1022.9
20260503195414 12 0.0 0.0 0.00 0.20 0.08 95 1023.0
20260503194913 11 0.0 0.0 0.00 0.20 0.08 95 1023.0
20260503194411 11 0.0 0.0 0.00 0.20 0.08 96 1023.0
20260503193910 11 0.0 0.0 0.00 0.20 0.08 95 1023.0
20260503193408 11 0.0 0.0 0.00 0.20 0.08 95 1023.0
20260503192906 12 0.0 0.0 0.00 0.20 0.08 94 1023.1
20260503192404 12 0.0 0.0 0.00 0.20 0.08 93 1023.0
20260503191902 12 0.0 0.0 0.00 0.20 0.08 92 1023.1
20260503191401 12 0.0 0.0 0.00 0.20 0.08 92 1023.3
20260503190859 12 0.0 0.0 0.00 0.20 0.08 92 1023.5
20260503190357 12 0.0 0.0 0.00 0.20 0.08 92 1023.5
20260503185856 12 0.0 0.0 0.00 0.20 0.08 91 1023.5
20260503185354 12 0.0 0.0 0.00 0.20 0.08 90 1023.4
20260503184852 12 0.0 0.0 0.00 0.20 0.08 90 1023.4
20260503184351 12 0.0 0.0 0.00 0.20 0.08 91 1023.4
20260503183849 12 0.0 0.0 0.00 0.20 0.08 91 1023.4
20260503183347 12 0.0 0.0 0.00 0.20 0.08 91 1023.5
20260503182846 12 0.0 0.0 0.00 0.20 0.08 90 1023.4
20260503182344 12 0.0 0.0 0.00 0.20 0.08 90 1023.4
20260503181842 12 0.0 0.0 0.00 0.20 0.08 89 1023.4
20260503181341 12 0.0 0.0 0.00 0.20 0.08 88 1023.4
20260503180839 12 0.0 0.0 0.00 0.20 0.08 87 1023.4
20260503180337 12 0.0 0.0 0.00 0.20 0.08 85 1023.4
20260503175836 12 0.0 0.0 0.00 0.20 0.08 86 1023.4
20260503175333 12 0.0 0.0 0.00 0.20 0.08 85 1023.3
20260503174832 13 0.0 0.0 0.00 0.20 0.08 83 1023.2
20260503174330 13 0.0 0.0 0.00 0.20 0.08 86 1023.2
20260503173828 12 0.0 0.0 0.00 0.20 0.08 87 1023.1
20260503173327 13 0.0 0.0 0.00 0.20 0.08 85 1023.1
20260503172825 13 0.0 0.0 0.00 0.20 0.08 86 1023.1
20260503172324 12 0.0 0.0 0.00 0.20 0.08 87 1023.3
20260503171822 12 0.0 0.0 0.00 0.20 0.08 87 1023.4
20260503171320 12 0.0 0.0 0.00 0.20 0.08 86 1023.5
20260503170819 13 0.0 0.0 0.00 0.20 0.08 88 1023.6
20260503170317 12 0.0 0.0 0.00 0.20 0.08 91 1023.7
20260503150738 13 0.0 0.0 0.00 0.15 0.03 92 1024.9
20260503150236 12 0.0 0.0 0.00 0.15 0.03 90 1024.9
20260503140215 12 0.0 0.0 0.00 0.20 0.03 96 1025.2
20260503131157 12 0.0 0.0 0.00 0.48 0.03 96 1025.2
20260503130656 12 0.0 0.0 0.00 0.48 0.03 96 1025.1
20260503130154 12 0.0 0.0 0.00 0.48 0.03 96 1025.0
20260503120129 13 0.0 0.0 0.00 0.51 0.03 99 1024.1
20260503110609 13 0.0 0.0 0.00 0.51 0.03 99 1023.6
20260503110107 13 0.0 0.0 0.00 0.51 0.03 99 1023.5
20260503081514 13 0.0 0.0 0.03 0.51 0.03 99 1021.5
20260503081012 13 0.0 0.0 0.03 0.51 0.03 99 1021.4
20260503080511 13 0.0 0.0 0.03 0.51 0.03 99 1021.4
20260503072458 13 0.0 0.0 0.00 0.48 0.00 99 1021.3
20260503071956 13 0.0 0.0 0.00 0.48 0.00 99 1021.3
20260503071455 13 0.0 0.0 0.00 0.48 0.00 99 1021.3
20260503070953 13 0.0 0.0 0.00 0.48 0.00 99 1021.3
20260503070451 13 0.0 0.0 0.00 0.48 0.00 99 1021.3
20260503054929 12 0.0 0.0 0.00 0.48 0.00 99 1021.7
20260503054428 12 0.0 0.0 0.00 0.48 0.00 99 1021.7
20260503053926 12 0.0 0.0 0.00 0.48 0.00 99 1021.8
20260503053425 12 0.0 0.0 0.00 0.48 0.00 99 1021.9
20260503052923 12 0.0 0.0 0.00 0.48 0.00 99 1021.9
20260503052421 12 0.0 0.0 0.00 0.48 0.00 99 1021.9
20260503051919 12 0.0 0.0 0.00 0.48 0.00 99 1021.9
20260503051418 12 0.0 0.0 0.00 0.48 0.00 99 1021.8
20260503050916 12 0.0 0.0 0.00 0.48 0.00 99 1021.9
20260503050415 12 0.0 0.0 0.00 0.48 0.00 99 1022.0
20260503045913 12 0.0 0.0 0.00 0.48 0.00 99 1022.0
20260503045412 12 0.0 0.0 0.00 0.48 0.00 99 1022.1
20260503044910 12 0.0 0.0 0.00 0.48 0.00 99 1022.3
20260503044409 12 0.0 0.0 0.00 0.48 0.00 99 1022.3
20260503043908 12 0.0 0.0 0.00 0.48 0.00 99 1022.3
20260503043406 12 0.0 0.0 0.00 0.48 0.00 99 1022.3
20260503042904 12 0.0 0.0 0.00 0.48 0.00 99 1022.2
20260503042402 13 0.0 0.0 0.00 0.48 0.00 99 1022.1
20260503041901 12 0.0 0.0 0.00 0.48 0.00 99 1022.0
20260503041359 12 0.0 0.0 0.00 0.48 0.00 99 1022.1
20260503040857 12 0.0 0.0 0.00 0.48 0.00 99 1022.1
20260503040356 12 0.0 0.0 0.00 0.48 0.00 99 1022.0
20260503035854 12 0.0 0.0 0.00 0.48 0.00 99 1022.1
20260503035352 12 0.0 0.0 0.00 0.48 0.00 99 1022.2
20260503034850 12 0.0 0.0 0.00 0.48 0.00 99 1022.2
20260503034349 12 0.0 0.0 0.00 0.48 0.00 99 1022.3
20260503033847 12 0.0 0.0 0.00 0.48 0.00 99 1022.5
20260503033345 12 0.0 0.0 0.00 0.48 0.00 99 1022.6
20260503032843 12 0.0 0.0 0.00 0.48 0.00 99 1022.6
20260503032342 13 0.0 0.0 0.00 0.48 0.00 99 1022.5
20260503031840 13 0.0 0.0 0.00 0.48 0.00 99 1022.6
20260503031338 13 0.0 0.0 0.00 0.48 0.00 99 1022.6
20260503030837 13 0.0 0.0 0.00 0.48 0.00 99 1022.5
20260503030335 13 0.0 0.0 0.00 0.48 0.00 99 1022.6
20260503025833 13 0.0 0.0 0.00 0.48 0.48 99 1022.6
20260503025332 13 0.0 0.0 0.00 0.48 0.48 99 1022.5
20260503024830 13 0.0 0.0 0.00 0.48 0.48 99 1022.7
20260503024329 13 0.0 0.0 0.00 0.48 0.48 99 1022.6
20260503023828 13 0.0 0.0 0.00 0.48 0.48 99 1022.5
20260503023326 13 0.0 0.0 0.00 0.48 0.48 99 1022.7
20260503022825 13 0.0 0.0 0.00 0.48 0.48 99 1022.5
20260503022323 13 0.0 0.0 0.00 0.48 0.48 99 1022.7
20260503021821 13 0.0 0.0 0.00 0.48 0.48 99 1022.6
20260503021319 13 0.0 0.0 0.00 0.48 0.48 99 1022.6
20260503020817 13 0.0 0.0 0.00 0.48 0.48 99 1022.6
20260503020315 13 0.0 0.0 0.00 0.48 0.48 99 1022.6
20260503015813 13 0.0 0.0 0.00 0.48 0.48 98 1022.5
20260503015312 13 0.0 0.0 0.00 0.48 0.48 98 1022.6
20260503014810 13 0.0 0.0 0.00 0.48 0.48 98 1022.6
20260503014308 13 0.0 0.0 0.00 0.48 0.48 98 1022.6
20260503013806 13 0.0 0.0 0.00 0.48 0.48 98 1022.6
20260503013304 13 0.0 0.0 0.00 0.48 0.48 98 1022.7
20260503012802 13 0.0 0.0 0.00 0.48 0.48 98 1022.7
20260503012300 13 0.0 0.0 0.00 0.48 0.48 98 1022.7
20260503011757 13 0.0 0.0 0.00 0.48 0.48 98 1022.7
20260503011255 13 0.0 0.0 0.00 0.48 0.48 98 1022.7
20260503010754 13 0.0 0.0 0.00 0.48 0.48 98 1022.5
20260503010252 13 0.0 0.0 0.00 0.48 0.48 98 1022.4
20260503005751 13 0.0 0.0 0.00 0.48 0.48 98 1022.4
20260503005249 13 0.0 0.0 0.00 0.48 0.48 98 1022.6
20260503004747 13 0.0 0.0 0.00 0.48 0.48 98 1022.7
20260503004245 14 0.0 0.0 0.00 0.48 0.48 98 1022.7
20260503003743 14 0.0 0.0 0.00 0.48 0.48 98 1022.6
20260503003241 14 0.0 0.0 0.00 0.48 0.48 97 1022.6
20260503002739 14 0.0 0.0 0.00 0.48 0.48 97 1022.3
20260503002237 14 0.0 0.0 0.00 0.48 0.48 97 1022.2
20260503001735 14 0.0 0.0 0.00 0.48 0.48 97 1022.5
20260503001233 14 0.0 0.0 0.00 0.48 0.48 97 1022.4
20260503000732 14 0.0 0.0 0.00 0.48 0.48 97 1022.5
20260503000230 14 0.0 0.0 0.00 0.48 0.48 97 1022.1
20260502235728 14 0.0 0.0 0.00 0.48 0.48 97 1022.0
20260502235226 15 0.0 0.0 0.00 0.48 0.48 97 1022.1
20260502234725 14 0.0 0.0 0.00 0.48 0.48 97 1021.7
20260502234223 14 0.0 0.0 0.00 0.48 0.48 96 1021.2
20260502233721 15 0.0 0.0 0.00 0.48 0.48 96 1021.1
20260502233219 15 0.0 0.0 0.00 0.48 0.48 96 1021.8
20260502232718 15 0.0 0.0 0.00 0.48 0.48 96 1022.1
20260502232216 15 0.0 0.0 0.00 0.48 0.48 96 1022.3
20260502231714 15 0.0 0.0 0.00 0.48 0.48 96 1022.4
20260502231213 15 0.0 0.0 0.00 0.48 0.48 96 1021.5
20260502230711 15 0.0 0.0 0.00 0.48 0.48 96 1020.6
20260502230210 15 0.0 0.0 0.00 0.48 0.48 96 1019.6
20260502225708 15 0.0 0.0 0.00 0.48 0.48 96 1019.4
20260502225206 15 0.0 0.0 0.00 0.48 0.48 96 1020.6
20260502224704 15 0.0 0.0 0.03 0.48 0.48 96 1021.6
20260502224202 15 0.0 0.0 0.03 0.48 0.48 96 1020.8
20260502223700 15 0.0 0.0 0.05 0.48 0.48 96 1020.4
20260502223159 15 0.0 0.0 0.05 0.48 0.48 96 1020.5
20260502222657 15 0.0 0.0 0.05 0.48 0.48 96 1020.4
20260502222156 15 0.0 0.0 0.05 0.48 0.48 96 1020.0
20260502221654 15 0.0 0.0 0.08 0.48 0.48 96 1020.0
20260502221153 15 0.0 0.0 0.08 0.48 0.48 96 1020.3